• In Russia
  • List of Countries
  • For 7 days
  • Water Temperature
  • Satellite Maps
  • Weather Map
  • Weather Widgets
  • user-avatar
    Login

    Hourly Weather Edeleny

    Today, 17 August, Thursday

    Time Temperature Precipitation Wind Pressure Humidity
    00:00 +22°C° 0 mm 1 mps 751 mmHg 60%
    01:00 +21°C° 0 mm 1 mps 751 mmHg 59%
    02:00 +21°C° 0 mm 1 mps 751 mmHg 60%
    03:00 +21°C° 0 mm 1 mps 751 mmHg 61%
    04:00 +20°C° 0 mm 1 mps 751 mmHg 63%
    05:00 +22°C° 0 mm 1 mps 751 mmHg 60%
    06:00 +23°C° 0 mm 1 mps 751 mmHg 56%
    07:00 +25°C° 0 mm 2 mps 752 mmHg 52%
    08:00 +27°C° 0 mm 2 mps 752 mmHg 46%
    09:00 +29°C° 0 mm 2 mps 752 mmHg 40%
    10:00 +31°C° 0 mm 2 mps 752 mmHg 34%
    11:00 +32°C° 0 mm 2 mps 751 mmHg 32%
    12:00 +34°C° 0 mm 2 mps 751 mmHg 30%
    13:00 +35°C° 0 mm 2 mps 751 mmHg 28%
    14:00 +34°C° 0 mm 2 mps 751 mmHg 28%
    15:00 +33°C° 0 mm 1 mps 750 mmHg 29%
    16:00 +33°C° 0 mm 1 mps 750 mmHg 29%
    17:00 +31°C° 0 mm 1 mps 750 mmHg 34%
    18:00 +28°C° 0 mm 1 mps 750 mmHg 40%
    19:00 +26°C° 0 mm 1 mps 750 mmHg 45%
    20:00 +25°C° 0 mm 1 mps 750 mmHg 48%
    21:00 +24°C° 0 mm 1 mps 751 mmHg 51%
    22:00 +24°C° 0 mm 1 mps 751 mmHg 54%
    23:00 +23°C° 0 mm 1 mps 751 mmHg 57%

    Tomorrow, 18 August, Friday

    Time Temperature Precipitation Wind Pressure Humidity
    00:00 +23°C° 0 mm 1 mps 751 mmHg 59%
    01:00 +22°C° 0 mm 1 mps 751 mmHg 62%
    02:00 +22°C° 0 mm 1 mps 751 mmHg 64%
    03:00 +21°C° 0 mm 1 mps 751 mmHg 66%
    04:00 +21°C° 0 mm 1 mps 751 mmHg 68%
    05:00 +22°C° 0 mm 1 mps 751 mmHg 64%
    06:00 +24°C° 0 mm 1 mps 751 mmHg 61%
    07:00 +25°C° 0 mm 1 mps 751 mmHg 58%
    08:00 +27°C° 0 mm 1 mps 751 mmHg 51%
    09:00 +30°C° 0 mm 1 mps 751 mmHg 44%
    10:00 +32°C° 0 mm 1 mps 751 mmHg 37%
    11:00 +33°C° 0 mm 1 mps 751 mmHg 34%
    12:00 +34°C° 0 mm 1 mps 750 mmHg 30%
    13:00 +36°C° 0 mm 2 mps 750 mmHg 27%
    14:00 +35°C° 0 mm 2 mps 750 mmHg 27%
    15:00 +34°C° 0 mm 1 mps 749 mmHg 27%
    16:00 +34°C° 0 mm 1 mps 749 mmHg 27%
    17:00 +32°C° 0 mm 1 mps 749 mmHg 33%
    18:00 +30°C° 0 mm 1 mps 749 mmHg 38%
    19:00 +27°C° 0 mm 1 mps 749 mmHg 43%
    20:00 +26°C° 0 mm 1 mps 749 mmHg 45%
    21:00 +26°C° 0 mm 1 mps 749 mmHg 47%
    22:00 +25°C° 0 mm 1 mps 749 mmHg 49%
    23:00 +24°C° 0 mm 1 mps 749 mmHg 51%

    Day after tomorrow, 19 August, Saturday

    Time Temperature Precipitation Wind Pressure Humidity
    00:00 +23°C° 0 mm 1 mps 749 mmHg 53%
    01:00 +23°C° 0 mm 1 mps 748 mmHg 55%
    02:00 +22°C° 0 mm 1 mps 748 mmHg 57%
    03:00 +22°C° 0 mm 1 mps 748 mmHg 59%
    04:00 +22°C° 0 mm 1 mps 748 mmHg 60%
    05:00 +23°C° 0 mm 1 mps 748 mmHg 58%
    06:00 +24°C° 0 mm 1 mps 748 mmHg 55%
    07:00 +26°C° 0 mm 1 mps 748 mmHg 52%
    08:00 +28°C° 0 mm 2 mps 748 mmHg 47%
    09:00 +30°C° 0 mm 2 mps 748 mmHg 41%
    10:00 +32°C° 0 mm 2 mps 748 mmHg 35%
    11:00 +34°C° 0 mm 3 mps 748 mmHg 32%
    12:00 +35°C° 0 mm 3 mps 748 mmHg 29%
    13:00 +36°C° 0 mm 3 mps 747 mmHg 26%
    14:00 +36°C° 0 mm 3 mps 747 mmHg 28%
    15:00 +35°C° 0 mm 2 mps 747 mmHg 29%
    16:00 +35°C° 0 mm 2 mps 747 mmHg 31%
    17:00 +31°C° 0 mm 2 mps 747 mmHg 37%
    18:00 +29°C° 0 mm 2 mps 748 mmHg 43%
    19:00 +27°C° 0 mm 1 mps 748 mmHg 49%
    20:00 +26°C° 0.2 mm 2 mps 748 mmHg 57%
    21:00 +24°C° 0.2 mm 3 mps 748 mmHg 65%
    22:00 +22°C° 0.2 mm 5 mps 749 mmHg 73%
    23:00 +21°C° 0.5 mm 4 mps 749 mmHg 77%

    20 August, Sunday

    Time Temperature Precipitation Wind Pressure Humidity
    00:00 +20°C° 0.5 mm 4 mps 749 mmHg 81%
    01:00 +19°C° 0.5 mm 4 mps 748 mmHg 84%
    02:00 +19°C° 0.6 mm 3 mps 748 mmHg 86%
    03:00 +19°C° 0.6 mm 3 mps 748 mmHg 87%
    04:00 +19°C° 0.6 mm 3 mps 748 mmHg 89%
    05:00 +18°C° 1.6 mm 3 mps 749 mmHg 89%
    06:00 +18°C° 1.6 mm 3 mps 749 mmHg 90%
    07:00 +18°C° 1.6 mm 3 mps 749 mmHg 90%
    08:00 +18°C° 3.2 mm 3 mps 749 mmHg 90%
    09:00 +18°C° 3.2 mm 3 mps 749 mmHg 90%
    10:00 +18°C° 3.2 mm 3 mps 749 mmHg 90%
    11:00 +17°C° 2.6 mm 3 mps 750 mmHg 89%
    12:00 +17°C° 2.6 mm 4 mps 750 mmHg 89%
    13:00 +17°C° 2.6 mm 4 mps 750 mmHg 89%
    14:00 +17°C° 0.6 mm 4 mps 750 mmHg 86%
    15:00 +17°C° 0.6 mm 4 mps 750 mmHg 83%
    16:00 +18°C° 0.6 mm 4 mps 750 mmHg 80%
    17:00 +17°C° 0 mm 3 mps 751 mmHg 82%
    18:00 +16°C° 0 mm 3 mps 751 mmHg 84%
    19:00 +16°C° 0 mm 2 mps 751 mmHg 86%
    20:00 +15°C° 0 mm 2 mps 751 mmHg 87%
    21:00 +15°C° 0 mm 2 mps 751 mmHg 88%
    22:00 +15°C° 0 mm 2 mps 751 mmHg 88%
    23:00 +14°C° 0 mm 2 mps 751 mmHg 89%

    21 August, Monday

    Time Temperature Precipitation Wind Pressure Humidity
    00:00 +14°C° 0 mm 2 mps 751 mmHg 89%
    01:00 +14°C° 0 mm 2 mps 751 mmHg 89%
    02:00 +13°C° 0 mm 2 mps 751 mmHg 89%
    03:00 +13°C° 0 mm 2 mps 751 mmHg 89%
    04:00 +13°C° 0 mm 2 mps 751 mmHg 88%
    05:00 +14°C° 0 mm 2 mps 751 mmHg 83%
    06:00 +16°C° 0 mm 2 mps 751 mmHg 77%
    07:00 +17°C° 0 mm 2 mps 751 mmHg 72%
    08:00 +19°C° 0 mm 2 mps 751 mmHg 64%
    09:00 +21°C° 0 mm 3 mps 751 mmHg 56%
    10:00 +24°C° 0 mm 3 mps 751 mmHg 48%
    11:00 +24°C° 0.1 mm 3 mps 751 mmHg 46%
    12:00 +25°C° 0.1 mm 3 mps 751 mmHg 45%
    13:00 +26°C° 0.1 mm 3 mps 750 mmHg 43%
    14:00 +25°C° 0 mm 3 mps 750 mmHg 45%
    15:00 +25°C° 0 mm 3 mps 750 mmHg 46%
    16:00 +25°C° 0 mm 3 mps 750 mmHg 47%
    17:00 +23°C° 0 mm 2 mps 750 mmHg 53%
    18:00 +20°C° 0 mm 2 mps 750 mmHg 60%
    19:00 +19°C° 0 mm 1 mps 751 mmHg 67%
    20:00 +18°C° 0 mm 1 mps 751 mmHg 69%
    21:00 +18°C° 0 mm 1 mps 751 mmHg 71%
    22:00 +16°C° 0 mm 2 mps 751 mmHg 73%
    23:00 +15°C° 0 mm 2 mps 751 mmHg 75%

    22 August, Tuesday

    Time Temperature Precipitation Wind Pressure Humidity
    00:00 +15°C° 0 mm 1 mps 751 mmHg 77%
    01:00 +15°C° 0 mm 1 mps 751 mmHg 78%
    02:00 +14°C° 0 mm 1 mps 751 mmHg 79%
    03:00 +14°C° 0 mm 1 mps 751 mmHg 81%
    04:00 +14°C° 0 mm 1 mps 751 mmHg 82%
    05:00 +15°C° 0 mm 1 mps 751 mmHg 76%
    06:00 +18°C° 0 mm 1 mps 751 mmHg 71%
    07:00 +17°C° 0 mm 0 mps 751 mmHg 66%
    08:00 +21°C° 0 mm 1 mps 751 mmHg 59%
    09:00 +23°C° 0 mm 1 mps 751 mmHg 53%
    10:00 +24°C° 0 mm 2 mps 750 mmHg 47%
    11:00 +25°C° 0 mm 2 mps 750 mmHg 43%
    12:00 +26°C° 0 mm 2 mps 750 mmHg 40%
    13:00 +27°C° 0 mm 2 mps 749 mmHg 37%
    14:00 +27°C° 0 mm 2 mps 749 mmHg 37%
    15:00 +27°C° 0 mm 2 mps 748 mmHg 38%
    16:00 +27°C° 0 mm 2 mps 748 mmHg 38%
    17:00 +25°C° 0 mm 2 mps 748 mmHg 45%
    18:00 +23°C° 0 mm 1 mps 748 mmHg 51%
    19:00 +21°C° 0 mm 1 mps 747 mmHg 58%
    20:00 +21°C° 0 mm 1 mps 747 mmHg 59%
    21:00 +20°C° 0 mm 1 mps 747 mmHg 60%
    22:00 +19°C° 0 mm 1 mps 747 mmHg 61%
    23:00 +19°C° 0 mm 1 mps 747 mmHg 62%
    Show more